{"data":{"norad_id":65275,"epoch":"2026-09-20T18:14:08.393568Z","epoch_age_seconds":95207,"freshness":"FRESH","line1":"1 65275U 25184C   26263.75981937  .00022674  00000+0  70157-3 0  9996","line2":"2 65275  97.2834 311.7117 0000927  97.9947 262.1401 15.33489650 60763","mean_motion":15.3348965,"eccentricity":9.27e-5,"inclination_deg":97.2834,"raan_deg":311.7117,"arg_perigee_deg":97.9947,"mean_anomaly_deg":262.1401,"bstar":0.00070157,"rev_number":6076,"period_min":93.903470427727,"perigee_km":464.77593387791,"apogee_km":466.04472755302,"semimajor_km":6843.5473307155,"source":"CELESTRAK","updated_at":"2026-09-21T09:00:35.563578Z"}}